| time (UTC) | temp C | wind direction | speed KPH | gust KPH | rain 1hr cm | rain 24hr cm | rain mn cm | humidity % | barometer mb |
| 20260506202603 | 22 | 15 | 1.6 | 6.4 | 0.00 | 0.00 | 0.00 | 55 | 1020.3 |
| 20260506202105 | 23 | 302 | 1.6 | 4.8 | 0.00 | 0.00 | 0.00 | 55 | 1020.4 |
| 20260506201604 | 22 | 284 | 1.6 | 6.4 | 0.00 | 0.00 | 0.00 | 56 | 1020.4 |
| 20260506201105 | 23 | 247 | 1.6 | 8.0 | 0.00 | 0.00 | 0.00 | 57 | 1020.5 |
| 20260506200605 | 22 | 310 | 1.6 | 8.0 | 0.00 | 0.00 | 0.00 | 55 | 1020.5 |
| 20260506200105 | 23 | 294 | 3.2 | 9.7 | 0.00 | 0.00 | 0.00 | 55 | 1020.6 |
| 20260506195103 | 23 | 252 | 1.6 | 6.4 | 0.00 | 0.00 | 0.00 | 56 | 1020.8 |
| 20260506194602 | 23 | 305 | 1.6 | 4.8 | 0.00 | 0.00 | 0.00 | 55 | 1020.8 |
| 20260506194101 | 23 | 344 | 1.6 | 6.4 | 0.00 | 0.00 | 0.00 | 58 | 1021.0 |
| 20260506193602 | 23 | 289 | 1.6 | 6.4 | 0.00 | 0.00 | 0.00 | 59 | 1021.0 |
| 20260506193104 | 23 | 317 | 1.6 | 8.0 | 0.00 | 0.00 | 0.00 | 60 | 1021.1 |
| 20260506192604 | 23 | 316 | 1.6 | 8.0 | 0.00 | 0.00 | 0.00 | 57 | 1021.2 |
| 20260506192104 | 22 | 302 | 1.6 | 6.4 | 0.00 | 0.00 | 0.00 | 58 | 1021.1 |
| 20260506191603 | 22 | 296 | 1.6 | 6.4 | 0.00 | 0.00 | 0.00 | 61 | 1021.2 |
| 20260506191101 | 22 | 293 | 1.6 | 6.4 | 0.00 | 0.00 | 0.00 | 62 | 1021.3 |
| 20260506185610 | 21 | 28 | 1.6 | 8.0 | 0.00 | 0.00 | 0.00 | 64 | 1021.3 |
| 20260506185102 | 21 | 30 | 3.2 | 9.7 | 0.00 | 0.00 | 0.00 | 63 | 1021.4 |
| 20260506184100 | 20 | 275 | 1.6 | 6.4 | 0.00 | 0.00 | 0.00 | 67 | 1021.4 |
| 20260506183556 | 20 | 274 | 1.6 | 6.4 | 0.00 | 0.00 | 0.00 | 64 | 1021.5 |
| 20260506183056 | 20 | 348 | 0.0 | 4.8 | 0.00 | 0.00 | 0.00 | 66 | 1021.5 |
| 20260506182556 | 20 | 276 | 0.0 | 3.2 | 0.00 | 0.00 | 0.00 | 67 | 1021.5 |
| 20260506182057 | 20 | 276 | 1.6 | 3.2 | 0.00 | 0.00 | 0.00 | 65 | 1021.6 |
| 20260506181051 | 20 | 273 | 0.0 | 4.8 | 0.00 | 0.00 | 0.00 | 65 | 1021.6 |
| 20260506180549 | 20 | 273 | 1.6 | 4.8 | 0.00 | 0.00 | 0.00 | 65 | 1021.6 |
| 20260506180047 | 20 | 281 | 1.6 | 4.8 | 0.00 | 0.00 | 0.00 | 68 | 1021.6 |
| 20260506175548 | 19 | 284 | 1.6 | 6.4 | 0.00 | 0.00 | 0.00 | 66 | 1021.6 |
| 20260506175048 | 19 | 261 | 1.6 | 6.4 | 0.00 | 0.00 | 0.00 | 67 | 1021.6 |
| 20260506174548 | 19 | 234 | 1.6 | 3.2 | 0.00 | 0.00 | 0.00 | 66 | 1021.6 |
| 20260506173546 | 18 | 232 | 1.6 | 6.4 | 0.00 | 0.00 | 0.00 | 70 | 1021.6 |
| 20260506172534 | 17 | 234 | 0.0 | 1.6 | 0.00 | 0.00 | 0.00 | 70 | 1021.7 |
| 20260506172028 | 18 | 234 | 0.0 | 4.8 | 0.00 | 0.00 | 0.00 | 72 | 1021.7 |
| 20260506171527 | 18 | 234 | 0.0 | 4.8 | 0.00 | 0.00 | 0.00 | 71 | 1021.8 |
| 20260506171028 | 17 | 303 | 0.0 | 4.8 | 0.00 | 0.00 | 0.00 | 71 | 1021.8 |
| 20260506170529 | 17 | 302 | 0.0 | 4.8 | 0.00 | 0.00 | 0.00 | 72 | 1021.8 |
| 20260506170025 | 17 | 303 | 1.6 | 4.8 | 0.00 | 0.00 | 0.00 | 73 | 1021.8 |
| 20260506165525 | 17 | 303 | 1.6 | 4.8 | 0.00 | 0.00 | 0.00 | 72 | 1021.8 |
| 20260506165025 | 17 | 288 | 0.0 | 3.2 | 0.00 | 0.00 | 0.00 | 73 | 1021.9 |
| 20260506164525 | 16 | 290 | 0.0 | 3.2 | 0.00 | 0.00 | 0.00 | 74 | 1021.8 |
| 20260506163525 | 16 | 290 | 0.0 | 3.2 | 0.00 | 0.00 | 0.00 | 76 | 1021.9 |
| 20260506163025 | 16 | 290 | 1.6 | 4.8 | 0.00 | 0.00 | 0.00 | 76 | 1021.9 |
| 20260506162525 | 16 | 290 | 1.6 | 4.8 | 0.00 | 0.00 | 0.00 | 74 | 1021.9 |
| 20260506162027 | 16 | 302 | 0.0 | 4.8 | 0.00 | 0.00 | 0.00 | 77 | 1021.9 |
| 20260506161527 | 15 | 302 | 0.0 | 4.8 | 0.00 | 0.00 | 0.00 | 79 | 1021.9 |
| 20260506161025 | 15 | 289 | 0.0 | 3.2 | 0.00 | 0.00 | 0.00 | 79 | 1021.9 |
| 20260506160021 | 15 | 289 | 0.0 | 3.2 | 0.00 | 0.00 | 0.00 | 79 | 1022.0 |
| 20260506155521 | 15 | 289 | 0.0 | 3.2 | 0.00 | 0.00 | 0.00 | 80 | 1022.0 |
| 20260506155019 | 14 | 289 | 0.0 | 1.6 | 0.00 | 0.00 | 0.00 | 80 | 1022.0 |
| 20260506154521 | 14 | 289 | 0.0 | 3.2 | 0.00 | 0.00 | 0.00 | 80 | 1022.0 |
| 20260506154020 | 14 | 289 | 0.0 | 3.2 | 0.00 | 0.00 | 0.00 | 80 | 1022.1 |
| 20260506153016 | 14 | 290 | 0.0 | 3.2 | 0.00 | 0.00 | 0.00 | 81 | 1022.1 |
| 20260506152516 | 14 | 287 | 0.0 | 0.0 | 0.00 | 0.00 | 0.00 | 82 | 1022.1 |
| 20260506152015 | 14 | 287 | 0.0 | 1.6 | 0.00 | 0.00 | 0.00 | 82 | 1022.1 |
| 20260506151514 | 14 | 287 | 0.0 | 1.6 | 0.00 | 0.00 | 0.00 | 82 | 1022.1 |
| 20260506151010 | 14 | 287 | 0.0 | 1.6 | 0.00 | 0.00 | 0.00 | 82 | 1022.0 |
| 20260506150508 | 13 | 287 | 0.0 | 4.8 | 0.00 | 0.00 | 0.00 | 82 | 1022.0 |
| 20260506150004 | 13 | 288 | 0.0 | 4.8 | 0.00 | 0.00 | 0.00 | 83 | 1022.0 |
| 20260506145458 | 13 | 315 | 0.0 | 1.6 | 0.00 | 0.00 | 0.00 | 84 | 1021.9 |
| 20260506144957 | 13 | 315 | 0.0 | 0.0 | 0.00 | 0.00 | 0.00 | 84 | 1022.0 |
| 20260506143753 | 12 | 315 | 0.0 | 0.0 | 0.00 | 0.00 | 0.00 | 87 | 1022.0 |
| 20260506143244 | 12 | 315 | 0.0 | 0.0 | 0.00 | 0.00 | 0.00 | 86 | 1021.9 |
| 20260506142739 | 12 | 315 | 0.0 | 0.0 | 0.00 | 0.00 | 0.00 | 86 | 1021.8 |
| 20260506141716 | 12 | 315 | 0.0 | 0.0 | 0.00 | 0.00 | 0.00 | 87 | 1021.8 |
| 20260506141211 | 12 | 315 | 0.0 | 0.0 | 0.00 | 0.00 | 0.00 | 88 | 1021.7 |
| 20260506140711 | 12 | 315 | 0.0 | 0.0 | 0.00 | 0.00 | 0.00 | 89 | 1021.6 |
| 20260506135706 | 12 | 315 | 0.0 | 0.0 | 0.00 | 0.00 | 0.00 | 88 | 1021.5 |
| 20260506135205 | 12 | 315 | 0.0 | 0.0 | 0.00 | 0.00 | 0.00 | 88 | 1021.4 |
| 20260506134658 | 12 | 315 | 0.0 | 0.0 | 0.00 | 0.00 | 0.00 | 88 | 1021.4 |
| 20260506134154 | 12 | 315 | 0.0 | 0.0 | 0.00 | 0.00 | 0.00 | 89 | 1021.4 |
| 20260506133652 | 12 | 315 | 0.0 | 0.0 | 0.00 | 0.00 | 0.00 | 90 | 1021.4 |
| 20260506132652 | 11 | 315 | 0.0 | 0.0 | 0.00 | 0.00 | 0.00 | 90 | 1021.4 |
| 20260506132151 | 11 | 315 | 0.0 | 0.0 | 0.00 | 0.00 | 0.00 | 90 | 1021.3 |
| 20260506131651 | 12 | 315 | 0.0 | 0.0 | 0.00 | 0.00 | 0.00 | 89 | 1021.3 |
| 20260506130649 | 12 | 315 | 0.0 | 0.0 | 0.00 | 0.00 | 0.00 | 89 | 1021.1 |
| 20260506130148 | 12 | 315 | 0.0 | 0.0 | 0.00 | 0.00 | 0.00 | 89 | 1021.2 |
| 20260506125648 | 12 | 315 | 0.0 | 0.0 | 0.00 | 0.00 | 0.00 | 88 | 1021.2 |
| 20260506125148 | 12 | 315 | 0.0 | 0.0 | 0.00 | 0.00 | 0.00 | 88 | 1021.1 |
| 20260506124649 | 12 | 315 | 0.0 | 0.0 | 0.00 | 0.00 | 0.00 | 87 | 1021.0 |
| 20260506123648 | 12 | 315 | 0.0 | 0.0 | 0.00 | 0.00 | 0.00 | 87 | 1021.0 |
| 20260506123146 | 12 | 315 | 0.0 | 0.0 | 0.00 | 0.00 | 0.00 | 87 | 1021.0 |
| 20260506122646 | 12 | 315 | 0.0 | 0.0 | 0.00 | 0.00 | 0.00 | 87 | 1021.1 |
| 20260506122147 | 12 | 315 | 0.0 | 0.0 | 0.00 | 0.00 | 0.00 | 87 | 1021.1 |
| 20260506121647 | 12 | 315 | 0.0 | 0.0 | 0.00 | 0.00 | 0.00 | 87 | 1021.0 |
| 20260506120646 | 12 | 315 | 0.0 | 0.0 | 0.00 | 0.00 | 0.00 | 87 | 1021.0 |
| 20260506120148 | 12 | 315 | 0.0 | 0.0 | 0.00 | 0.00 | 0.00 | 87 | 1021.0 |
| 20260506115642 | 12 | 315 | 0.0 | 0.0 | 0.00 | 0.00 | 0.00 | 87 | 1021.0 |
| 20260506115144 | 12 | 315 | 0.0 | 0.0 | 0.00 | 0.00 | 0.00 | 87 | 1020.9 |
| 20260506114643 | 12 | 315 | 0.0 | 0.0 | 0.00 | 0.00 | 0.00 | 87 | 1020.7 |
| 20260506114143 | 12 | 315 | 0.0 | 0.0 | 0.00 | 0.00 | 0.00 | 87 | 1020.8 |
| 20260506113142 | 12 | 315 | 0.0 | 0.0 | 0.00 | 0.00 | 0.00 | 88 | 1020.7 |
| 20260506112642 | 12 | 315 | 0.0 | 0.0 | 0.00 | 0.00 | 0.00 | 87 | 1020.7 |
| 20260506112156 | 12 | 315 | 0.0 | 0.0 | 0.00 | 0.00 | 0.00 | 87 | 1020.5 |
| 20260506111136 | 12 | 315 | 0.0 | 0.0 | 0.00 | 0.00 | 0.00 | 86 | 1020.5 |
| 20260506110631 | 12 | 315 | 0.0 | 0.0 | 0.00 | 0.00 | 0.00 | 86 | 1020.4 |
| 20260506110124 | 12 | 315 | 0.0 | 0.0 | 0.00 | 0.00 | 0.00 | 86 | 1020.3 |
| 20260506105624 | 12 | 315 | 0.0 | 0.0 | 0.00 | 0.00 | 0.00 | 87 | 1020.3 |
| 20260506105124 | 12 | 315 | 0.0 | 0.0 | 0.00 | 0.00 | 0.00 | 86 | 1020.3 |
| 20260506104125 | 12 | 315 | 0.0 | 0.0 | 0.00 | 0.00 | 0.00 | 86 | 1020.3 |
| 20260506103125 | 12 | 315 | 0.0 | 1.6 | 0.00 | 0.00 | 0.00 | 87 | 1020.2 |
| 20260506102625 | 12 | 315 | 0.0 | 1.6 | 0.00 | 0.00 | 0.00 | 87 | 1020.1 |
| 20260506102124 | 12 | 315 | 0.0 | 1.6 | 0.00 | 0.00 | 0.00 | 86 | 1020.1 |
| 20260506101626 | 12 | 315 | 0.0 | 0.0 | 0.00 | 0.00 | 0.00 | 86 | 1020.0 |
| 20260506101124 | 12 | 315 | 0.0 | 0.0 | 0.00 | 0.00 | 0.00 | 86 | 1020.0 |
| 20260506100126 | 12 | 315 | 0.0 | 0.0 | 0.00 | 0.00 | 0.00 | 86 | 1020.0 |
| 20260506095112 | 12 | 315 | 0.0 | 0.0 | 0.00 | 0.00 | 0.00 | 86 | 1020.1 |
| 20260506093425 | 12 | 315 | 0.0 | 0.0 | 0.00 | 0.00 | 0.00 | 85 | 1020.0 |
| 20260506092900 | 12 | 315 | 0.0 | 1.6 | 0.00 | 0.00 | 0.00 | 86 | 1020.0 |
| 20260506092340 | 12 | 315 | 0.0 | 1.6 | 0.00 | 0.00 | 0.00 | 85 | 1020.0 |
| 20260506091824 | 12 | 315 | 0.0 | 1.6 | 0.00 | 0.00 | 0.00 | 85 | 1020.0 |
| 20260506091326 | 12 | 315 | 0.0 | 1.6 | 0.00 | 0.00 | 0.00 | 85 | 1020.1 |
| 20260506090818 | 12 | 315 | 0.0 | 1.6 | 0.00 | 0.00 | 0.00 | 85 | 1020.1 |
| 20260506085957 | 12 | 315 | 0.0 | 1.6 | 0.00 | 0.00 | 0.00 | 86 | 1020.1 |
| 20260506085451 | 12 | 315 | 0.0 | 1.6 | 0.00 | 0.00 | 0.00 | 86 | 1020.1 |
| 20260506084431 | 12 | 315 | 0.0 | 0.0 | 0.00 | 0.00 | 0.00 | 86 | 1020.0 |
| 20260506083925 | 12 | 315 | 0.0 | 0.0 | 0.00 | 0.00 | 0.00 | 86 | 1020.2 |
| 20260506083422 | 12 | 315 | 0.0 | 3.2 | 0.00 | 0.00 | 0.00 | 86 | 1020.1 |
| 20260506082920 | 12 | 315 | 0.0 | 3.2 | 0.00 | 0.00 | 0.00 | 86 | 1020.0 |
| 20260506082418 | 12 | 315 | 0.0 | 3.2 | 0.00 | 0.00 | 0.00 | 86 | 1019.9 |
| 20260506081918 | 12 | 315 | 0.0 | 3.2 | 0.00 | 0.00 | 0.00 | 86 | 1020.1 |
| 20260506081418 | 12 | 315 | 0.0 | 1.6 | 0.00 | 0.00 | 0.00 | 87 | 1020.0 |
| 20260506080414 | 11 | 315 | 0.0 | 1.6 | 0.00 | 0.00 | 0.00 | 88 | 1020.0 |
| 20260506073400 | 11 | 315 | 0.0 | 1.6 | 0.00 | 0.00 | 0.00 | 88 | 1019.8 |
| 20260506072858 | 11 | 315 | 0.0 | 1.6 | 0.00 | 0.00 | 0.00 | 88 | 1019.8 |
| 20260506072357 | 11 | 315 | 0.0 | 0.0 | 0.00 | 0.00 | 0.00 | 88 | 1019.7 |
| 20260506071854 | 11 | 315 | 0.0 | 0.0 | 0.00 | 0.00 | 0.00 | 88 | 1019.8 |
| 20260506070856 | 11 | 315 | 0.0 | 0.0 | 0.00 | 0.00 | 0.00 | 87 | 1019.6 |
| 20260506062343 | 12 | 315 | 0.0 | 1.6 | 0.00 | 0.00 | 0.30 | 85 | 1019.3 |
| 20260506061843 | 12 | 315 | 0.0 | 1.6 | 0.00 | 0.00 | 0.30 | 84 | 1019.3 |
| 20260506061343 | 12 | 315 | 0.0 | 1.6 | 0.00 | 0.00 | 0.30 | 84 | 1019.3 |
| 20260506060841 | 12 | 315 | 0.0 | 1.6 | 0.00 | 0.00 | 0.30 | 84 | 1019.2 |
| 20260506060339 | 12 | 315 | 0.0 | 1.6 | 0.00 | 0.00 | 0.30 | 84 | 1019.2 |
| 20260506051317 | 13 | 309 | 1.6 | 6.4 | 0.00 | 0.00 | 0.30 | 80 | 1018.9 |
| 20260506050310 | 13 | 268 | 1.6 | 4.8 | 0.00 | 0.00 | 0.30 | 80 | 1018.8 |
| 20260506044756 | 13 | 86 | 1.6 | 0.0 | 0.00 | 0.00 | 0.30 | 80 | 1018.7 |
| 20260506043528 | 13 | 267 | 0.0 | 4.8 | 0.00 | 0.00 | 0.30 | 80 | 1018.6 |
| 20260506043023 | 13 | 267 | 0.0 | 4.8 | 0.00 | 0.00 | 0.30 | 79 | 1018.5 |
| 20260506042506 | 14 | 207 | 0.0 | 3.2 | 0.00 | 0.00 | 0.30 | 79 | 1018.4 |
| 20260506042006 | 14 | 236 | 0.0 | 4.8 | 0.00 | 0.00 | 0.30 | 79 | 1018.5 |
| 20260506041503 | 14 | 235 | 0.0 | 4.8 | 0.00 | 0.00 | 0.30 | 78 | 1018.3 |
| 20260506041006 | 14 | 243 | 0.0 | 11.3 | 0.00 | 0.00 | 0.30 | 78 | 1018.2 |
| 20260506040501 | 14 | 247 | 1.6 | 11.3 | 0.00 | 0.00 | 0.30 | 78 | 1018.3 |
| 20260506035959 | 14 | 243 | 1.6 | 9.7 | 0.00 | 0.00 | 0.30 | 78 | 1018.2 |
| 20260506034958 | 14 | 186 | 1.6 | 8.0 | 0.00 | 0.00 | 0.30 | 78 | 1018.1 |
| 20260506033939 | 15 | 254 | 1.6 | 0.0 | 0.00 | 0.00 | 0.30 | 78 | 1018.0 |
| 20260506032628 | 15 | 235 | 1.6 | 4.8 | 0.00 | 0.00 | 0.30 | 77 | 1017.8 |
| 20260506032124 | 15 | 232 | 1.6 | 6.4 | 0.00 | 0.00 | 0.30 | 77 | 1017.5 |
| 20260506031623 | 15 | 330 | 0.0 | 6.4 | 0.00 | 0.00 | 0.30 | 77 | 1017.4 |
| 20260506030613 | 15 | 246 | 1.6 | 6.4 | 0.00 | 0.00 | 0.30 | 77 | 1017.3 |
| 20260506025607 | 15 | 258 | 1.6 | 12.9 | 0.00 | 0.00 | 0.30 | 75 | 1017.4 |
| 20260506025105 | 15 | 265 | 1.6 | 12.9 | 0.00 | 0.00 | 0.30 | 75 | 1017.4 |
| 20260506024604 | 15 | 267 | 1.6 | 4.8 | 0.00 | 0.00 | 0.30 | 75 | 1017.4 |
| 20260506024102 | 15 | 236 | 1.6 | 6.4 | 0.00 | 0.00 | 0.30 | 75 | 1017.2 |
| 20260506023556 | 15 | 269 | 1.6 | 3.2 | 0.00 | 0.00 | 0.30 | 75 | 1017.1 |
| 20260506022203 | 15 | 254 | 1.6 | 6.4 | 0.00 | 0.00 | 0.30 | 75 | 1017.1 |
| 20260506021703 | 15 | 254 | 1.6 | 6.4 | 0.00 | 0.00 | 0.30 | 75 | 1017.1 |
| 20260506020657 | 15 | 196 | 0.0 | 3.2 | 0.00 | 0.00 | 0.30 | 76 | 1017.0 |
| 20260506020141 | 15 | 196 | 1.6 | 9.7 | 0.00 | 0.00 | 0.30 | 76 | 1017.0 |
| 20260506015636 | 16 | 267 | 1.6 | 9.7 | 0.00 | 0.00 | 0.30 | 75 | 1016.9 |
| 20260506015133 | 16 | 252 | 1.6 | 9.7 | 0.00 | 0.00 | 0.30 | 75 | 1016.8 |
| 20260506014633 | 16 | 274 | 1.6 | 9.7 | 0.00 | 0.00 | 0.30 | 75 | 1016.8 |
| 20260506013630 | 16 | 255 | 1.6 | 6.4 | 0.00 | 0.00 | 0.30 | 75 | 1016.7 |
| 20260506013130 | 16 | 119 | 1.6 | 9.7 | 0.00 | 0.00 | 0.30 | 75 | 1016.6 |
| 20260506012631 | 16 | 256 | 1.6 | 9.7 | 0.00 | 0.00 | 0.30 | 75 | 1016.5 |
| 20260506012125 | 16 | 322 | 1.6 | 4.8 | 0.00 | 0.00 | 0.30 | 75 | 1016.6 |
| 20260506011105 | 16 | 107 | 1.6 | 6.4 | 0.00 | 0.00 | 0.30 | 75 | 1016.6 |
| 20260506010600 | 16 | 248 | 1.6 | 11.3 | 0.00 | 0.00 | 0.30 | 75 | 1016.6 |
| 20260506010048 | 16 | 272 | 1.6 | 11.3 | 0.00 | 0.00 | 0.30 | 75 | 1016.6 |
| 20260506005543 | 17 | 219 | 0.0 | 3.2 | 0.00 | 0.00 | 0.30 | 75 | 1016.6 |
| 20260506005037 | 17 | 165 | 1.6 | 3.2 | 0.00 | 0.00 | 0.30 | 74 | 1016.6 |
| 20260506004521 | 17 | 164 | 1.6 | 3.2 | 0.00 | 0.00 | 0.30 | 74 | 1016.5 |
| 20260506004015 | 17 | 140 | 1.6 | 8.0 | 0.00 | 0.00 | 0.30 | 73 | 1016.4 |
| 20260506003511 | 17 | 136 | 1.6 | 9.7 | 0.00 | 0.00 | 0.30 | 74 | 1016.3 |
| 20260506003000 | 17 | 273 | 1.6 | 9.7 | 0.00 | 0.00 | 0.30 | 75 | 1016.4 |
| 20260506001949 | 17 | 233 | 1.6 | 8.0 | 0.00 | 0.00 | 0.30 | 74 | 1016.3 |
| 20260506000431 | 17 | 261 | 1.6 | 6.4 | 0.00 | 0.00 | 0.30 | 73 | 1016.3 |
| 20260505235921 | 17 | 215 | 1.6 | 8.0 | 0.00 | 0.00 | 0.30 | 73 | 1016.3 |
| 20260505235414 | 17 | 230 | 1.6 | 8.0 | 0.00 | 0.00 | 0.30 | 74 | 1016.2 |
| 20260505234909 | 17 | 158 | 1.6 | 6.4 | 0.00 | 0.00 | 0.30 | 74 | 1016.2 |
| 20260505234356 | 17 | 302 | 1.6 | 8.0 | 0.00 | 0.00 | 0.30 | 74 | 1016.3 |
| 20260505233344 | 17 | 264 | 0.0 | 6.4 | 0.00 | 0.00 | 0.30 | 74 | 1016.3 |
| 20260505232832 | 17 | 240 | 0.0 | 6.4 | 0.00 | 0.00 | 0.30 | 75 | 1016.3 |
| 20260505232327 | 17 | 274 | 0.0 | 3.2 | 0.00 | 0.00 | 0.30 | 75 | 1016.3 |
| 20260505231821 | 16 | 291 | 1.6 | 9.7 | 0.00 | 0.00 | 0.30 | 77 | 1016.4 |
| 20260505230801 | 16 | 259 | 1.6 | 6.4 | 0.00 | 0.00 | 0.30 | 75 | 1016.4 |
| 20260505230255 | 16 | 218 | 1.6 | 4.8 | 0.00 | 0.00 | 0.30 | 76 | 1016.5 |
| 20260505225744 | 16 | 217 | 1.6 | 4.8 | 0.00 | 0.00 | 0.30 | 77 | 1016.4 |
| 20260505225238 | 16 | 267 | 0.0 | 4.8 | 0.00 | 0.00 | 0.30 | 76 | 1016.4 |
| 20260505224733 | 16 | 267 | 1.6 | 9.7 | 0.00 | 0.00 | 0.30 | 76 | 1016.4 |
| 20260505224218 | 16 | 277 | 1.6 | 9.7 | 0.00 | 0.00 | 0.30 | 76 | 1016.5 |
| 20260505223713 | 16 | 315 | 0.0 | 3.2 | 0.00 | 0.00 | 0.30 | 77 | 1016.4 |
| 20260505223207 | 16 | 321 | 0.0 | 3.2 | 0.00 | 0.00 | 0.30 | 76 | 1016.4 |
| 20260505222152 | 17 | 141 | 1.6 | 4.8 | 0.00 | 0.00 | 0.30 | 75 | 1016.5 |
| 20260505221645 | 17 | 261 | 1.6 | 4.8 | 0.00 | 0.00 | 0.30 | 75 | 1016.4 |
| 20260505221142 | 17 | 262 | 1.6 | 4.8 | 0.00 | 0.00 | 0.30 | 77 | 1016.5 |
| 20260505220642 | 16 | 217 | 0.0 | 4.8 | 0.00 | 0.00 | 0.30 | 77 | 1016.6 |
| 20260505220142 | 16 | 187 | 0.0 | 3.2 | 0.00 | 0.00 | 0.30 | 77 | 1016.5 |
| 20260505215642 | 16 | 131 | 0.0 | 3.2 | 0.00 | 0.00 | 0.30 | 78 | 1016.6 |
| 20260505215145 | 16 | 130 | 0.0 | 3.2 | 0.00 | 0.00 | 0.30 | 78 | 1016.7 |
| 20260505214639 | 16 | 131 | 0.0 | 3.2 | 0.00 | 0.00 | 0.30 | 77 | 1016.6 |
| 20260505213644 | 16 | 183 | 0.0 | 3.2 | 0.00 | 0.00 | 0.30 | 79 | 1016.7 |
| 20260505212136 | 16 | 261 | 0.0 | 6.4 | 0.00 | 0.00 | 0.30 | 78 | 1016.8 |
| 20260505211636 | 16 | 261 | 1.6 | 6.4 | 0.00 | 0.00 | 0.30 | 77 | 1016.8 |
| 20260505211137 | 16 | 104 | 0.0 | 3.2 | 0.00 | 0.00 | 0.30 | 77 | 1016.8 |
| 20260505210631 | 16 | 159 | 0.0 | 3.2 | 0.00 | 0.00 | 0.30 | 78 | 1016.8 |
| 20260505210125 | 16 | 259 | 0.0 | 3.2 | 0.00 | 0.00 | 0.30 | 76 | 1016.8 |
| 20260505205122 | 16 | 259 | 0.0 | 3.2 | 0.00 | 0.00 | 0.30 | 77 | 1016.9 |
| 20260505204623 | 16 | 263 | 0.0 | 1.6 | 0.00 | 0.00 | 0.30 | 79 | 1016.9 |
| 20260505203623 | 16 | 263 | 0.0 | 6.4 | 0.00 | 0.00 | 0.30 | 75 | 1016.9 |
| 20260505203123 | 16 | 267 | 0.0 | 1.6 | 0.00 | 0.00 | 0.30 | 77 | 1016.9 |